This demonstration page uses our WeatherBlox Daily Observations layout. Learn more.

Left ArrowRight Arrow

39.08367, -84.50855

Hourly Observations for March 29, 2018

Temp ( °F °C ) Dew Point ( °F °C ) Humidity (%) Winds ( mph kmh ) Pressure ( in mb ) Visibility ( mi km ) Precip ( " mm )
12:13 am 00:13 Cloudy with Mist and Fog 54 12.2 54 12.2 100 100 N N/A 29.94 1014 2 3 N/A
12:23 am 00:23 Cloudy with Mist and Fog 54 12.2 54 12.2 100 100 N N/A 29.94 1014 1 1 N/A
12:36 am 00:36 Cloudy with Mist and Fog 54 12.2 54 12.2 100 100 N N/A 29.94 1014 2 2 N/A
12:53 am 00:53 Cloudy with Mist and Fog 54 12.2 54 12.2 100 100 N N/A 29.92 1013 2 2 N/A
1:08 am 01:08 Cloudy with Mist and Fog 54 12.2 54 12.2 100 100 N N/A 29.94 1014 1 1 N/A
1:50 am 01:50 Mostly Cloudy with Fog 54 12 54 12 100 100 N N/A 29.94 1014 0 0 N/A
1:53 am 01:53 Mostly Cloudy with Fog 53 11.7 53 11.7 100 100 N N/A 29.90 1013 0 0 N/A
2:53 am 02:53 Mostly Cloudy with Fog 54 12.2 54 12.2 100 100 N N/A 29.87 1012 0 0 N/A
3:00 am 03:00 Mostly Cloudy with Fog 53 11.7 53 11.7 100 100 N N/A 29.91 1013 0 0 N/A
3:09 am 03:09 Mostly Cloudy with Fog 53 11.7 53 11.7 100 100 N N/A 29.91 1013 0 0 N/A
3:31 am 03:31 Mostly Cloudy with Mist and Fog 54 12.2 54 12.2 100 100 N N/A 29.91 1013 1 1 N/A
3:53 am 03:53 Mostly Cloudy with Fog 53 11.7 53 11.7 100 100 N N/A 29.85 1011 1 1 N/A
4:31 am 04:31 Cloudy with Light Rain 54 12.2 54 12.2 100 100 N N/A 29.88 1012 2 3 N/A
4:53 am 04:53 Cloudy with Rain 54 12.2 54 12.2 100 100 N N/A 29.85 1011 3 4 0.03 0.76
5:03 am 05:03 Cloudy with Rain 54 12.2 54 12.2 100 100 WSW 3 6 29.88 1012 2 2 0.03 0.76
5:41 am 05:41 Cloudy with Mist and Fog 54 12.2 54 12.2 100 100 N 3 6 29.85 1011 3 4 0.05 1.27
5:53 am 05:53 Cloudy with Light Rain 54 12.2 54 12.2 100 100 E 3 6 29.83 1010 1 2 0.05 1.27
6:16 am 06:16 Cloudy with Light Rain 54 12.2 54 12.2 100 100 N N/A 29.85 1011 2 3 0.01 0.25
6:28 am 06:28 Cloudy with Light Rain 54 12.2 54 12.2 100 100 N N/A 29.85 1011 1 2 0.01 0.25
6:40 am 06:40 Cloudy with Light Rain 54 12.2 54 12.2 100 100 N N/A 29.85 1011 3 4 0.01 0.25
6:53 am 06:53 Cloudy with Light Rain 54 12.2 54 12.2 100 100 SE 3 6 29.82 1010 2 2 0.02 0.51
7:24 am 07:24 Cloudy with Mist and Fog 54 12.2 54 12.2 100 100 WSW 3 6 29.85 1011 3 5 N/A
7:53 am 07:53 Cloudy with Mist and Fog 54 12.2 54 12.2 100 100 N N/A 29.84 1010 3 5 N/A
8:18 am 08:18 Cloudy with Light Rain 54 12.2 54 12.2 100 100 SSW 3 6 29.85 1011 3 5 N/A
8:51 am 08:51 Cloudy with Mist and Fog 57 14 57 14 100 100 SSW 6 9 29.85 1011 4 6 N/A
8:53 am 08:53 Cloudy with Mist and Fog 57 13.9 57 13.9 100 100 SSW 6 9 29.84 1011 4 6 N/A
9:06 am 09:06 Cloudy with Light Rain 57 13.9 57 13.9 100 100 SSW 6 9 29.85 1011 2 3 0.01 0.25
9:53 am 09:53 Cloudy with Mist and Fog 58 14.4 58 14.4 100 100 S 8 13 29.84 1011 4 6 0.01 0.25
10:10 am 10:10 Cloudy with Light Rain 58 14.4 58 14.4 100 100 S 9 15 29.83 1010 2 3 0.01 0.25
10:53 am 10:53 Cloudy with Mist and Fog 59 15 59 15 100 100 S 5 7 29.83 1010 2 3 0.01 0.25
11:36 am 11:36 Cloudy with Mist and Fog 59 15 59 15 100 100 S 7 11 29.83 1010 2 3 N/A
11:53 am 11:53 Cloudy with Mist and Fog 59 15 59 15 100 100 SSW 5 7 29.80 1009 5 8 N/A
12:23 pm 12:23 Cloudy with Mist and Fog 60 15.6 60 15.6 100 100 S 8 13 29.80 1009 5 8 N/A
12:48 pm 12:48 Cloudy with Light Rain 61 16 59 15 94 94 SSW 8 13 29.80 1009 9 14 0.01 0.25
12:53 pm 12:53 Cloudy with Light Rain 60 15.6 59 15 96 96 S 8 13 29.79 1009 5 8 0.01 0.25
1:53 pm 13:53 Cloudy with Light Rain 61 16.1 60 15.6 97 97 SSW 9 15 29.77 1008 9 14 0.03 0.76
2:53 pm 14:53 Cloudy with Light Rain 61 16.1 60 15.6 97 97 SSW 10 17 29.75 1008 6 10 0.02 0.51
3:53 pm 15:53 Cloudy with Light Rain 61 16.1 60 15.6 97 97 SSW 12 19 29.72 1007 10 16 0.02 0.51
4:53 pm 16:53 Cloudy with Light Rain 60 15.6 58 14.4 93 93 SW 13 20 29.72 1006 7 11 0.04 1.02
5:53 pm 17:53 Cloudy 60 15.6 58 14.4 93 93 SW 8 13 29.73 1007 10 16 0.02 0.51
6:36 pm 18:36 Cloudy 60 15.6 58 14.4 93 93 WSW 6 9 29.74 1007 10 16 N/A
6:53 pm 18:53 Cloudy with Rain 59 15 57 13.9 93 93 W 12 19 29.73 1007 4 6 0.02 0.51
7:12 pm 19:12 Cloudy with Rain 52 11.1 51 10.6 97 97 N 17 28 29.77 1008 6 10 0.02 0.51
7:25 pm 19:25 Cloudy with Light Rain 51 10.6 50 10 96 96 NNW 17 28 29.77 1008 7 11 0.03 0.76
7:45 pm 19:45 Cloudy with Light Rain 50 10 49 9.4 96 96 N 9 15 29.80 1009 10 16 0.03 0.76
7:53 pm 19:53 Cloudy with Light Rain 49 9.4 48 8.9 97 97 N 8 13 29.77 1008 10 16 0.03 0.76
8:30 pm 20:30 Cloudy with Rain 48 8.9 48 8.9 100 100 N 8 13 29.83 1010 3 4 0.05 1.27
8:53 pm 20:53 Cloudy with Rain 48 8.9 47 8.3 96 96 N 6 9 29.79 1009 3 5 0.10 2.54
9:53 pm 21:53 Cloudy with Light Rain 47 8.3 46 7.8 97 97 N 8 13 29.82 1010 9 14 0.05 1.27
10:53 pm 22:53 Cloudy with Light Rain 47 8.3 45 7.2 93 93 N 10 17 29.84 1010 10 16 0.01 0.25
11:53 pm 23:53 Cloudy 46 7.8 44 6.7 93 93 NNE 13 20 29.84 1011 10 16 N/A

Powered by AerisWeather